UPS79 LPPT-EDDM

Flight info

Callsign UPS79
Flight time 2h 20m
Altitude 38000
Route IXIDA DCT RIVRO DCT TOSDI DCT ZMR DCT NEA DCT DGO DCT LPA DCT GOSVI/N0490F400 DCT TOPTU DCT TOU DCT GAI DCT MEN DCT NINUN DCT LATAM DCT ETREK DCT LTP DCT SOPLO DCT OMASI DCT KINNI DCT LAMUR DCT KORED/N0486F390 DCT NUNRI T103 BETOS BETOS1B
Aircraft B748/H-SDE3FGHIM1M2RWXY/LB1

Departure

Time 2026-05-03 22:26
Airport Lisbon Humberto Delgado Airport (LPPT)

Arrival

Time 2026-05-04 00:46
Airport Munich Airport (EDDM)
Time Latitude Longitude Altitude Speed Heading
2026-05-03 21:50 38.76781 -9.13702 361 ft 0 kts 77°
2026-05-03 22:19 38.76782 -9.13701 353 ft 0 kts 77°
2026-05-03 22:20 38.76781 -9.13704 353 ft 2 kts 77°
2026-05-03 22:20 38.76774 -9.13741 360 ft 1 kts 77°
2026-05-03 22:20 38.76773 -9.13747 363 ft 2 kts 83°
2026-05-03 22:21 38.76773 -9.13768 363 ft 2 kts 106°
2026-05-03 22:21 38.76777 -9.13783 363 ft 3 kts 131°
2026-05-03 22:21 38.76801 -9.13808 363 ft 2 kts 157°
2026-05-03 22:21 38.76802 -9.13808 363 ft 0 kts 159°
2026-05-03 22:23 38.76781 -9.13803 361 ft 7 kts 171°
2026-05-03 22:23 38.76730 -9.13798 358 ft 9 kts 172°
2026-05-03 22:23 38.76665 -9.13783 358 ft 10 kts 170°
2026-05-03 22:23 38.76607 -9.13806 355 ft 7 kts 226°
2026-05-03 22:24 38.76585 -9.13904 362 ft 15 kts 258°
2026-05-03 22:24 38.76561 -9.14058 358 ft 20 kts 257°
2026-05-03 22:24 38.76580 -9.14197 357 ft 12 kts 292°
2026-05-03 22:24 38.76590 -9.14227 356 ft 0 kts 292°
2026-05-03 22:25 38.76592 -9.14233 354 ft 3 kts 292°
2026-05-03 22:25 38.76612 -9.14298 351 ft 13 kts 291°
2026-05-03 22:25 38.76641 -9.14359 356 ft 1 kts 327°
2026-05-03 22:26 38.76758 -9.14327 357 ft 47 kts 22°
2026-05-03 22:26 38.77383 -9.13993 362 ft 148 kts 22°
2026-05-03 22:26 38.78531 -9.13349 714 ft 194 kts 23°
2026-05-03 22:26 38.79835 -9.12560 1096 ft 225 kts 27°
2026-05-03 22:27 38.81172 -9.11511 1923 ft 227 kts 28°
2026-05-03 22:27 38.82577 -9.10472 2703 ft 241 kts 26°
2026-05-03 22:27 38.84110 -9.09400 3403 ft 260 kts 26°
2026-05-03 22:27 38.85793 -9.08221 4018 ft 294 kts 27°
2026-05-03 22:28 38.87510 -9.06993 4601 ft 278 kts 27°
2026-05-03 22:28 38.89205 -9.05769 5194 ft 274 kts 29°
2026-05-03 22:28 38.90723 -9.04221 5788 ft 278 kts 40°
2026-05-03 22:28 38.92161 -9.02526 6396 ft 282 kts 41°
2026-05-03 22:29 38.93623 -9.00795 6983 ft 287 kts 41°
2026-05-03 22:29 38.95100 -8.99077 7632 ft 291 kts 40°
2026-05-03 22:29 38.96609 -8.97327 8301 ft 294 kts 40°
2026-05-03 22:29 38.98138 -8.95543 8996 ft 298 kts 40°
2026-05-03 22:30 38.99665 -8.93748 9704 ft 302 kts 42°
2026-05-03 22:30 39.01139 -8.91766 10383 ft 314 kts 47°
2026-05-03 22:30 39.02612 -8.89614 11047 ft 325 kts 47°
2026-05-03 22:30 39.04181 -8.87415 11759 ft 336 kts 45°
2026-05-03 22:31 39.05803 -8.85219 12456 ft 346 kts 45°
2026-05-03 22:31 39.07487 -8.82915 13174 ft 357 kts 45°
2026-05-03 22:31 39.09184 -8.80554 13905 ft 365 kts 46°
2026-05-03 22:31 39.10933 -8.78122 14567 ft 370 kts 45°
2026-05-03 22:32 39.12686 -8.75701 15221 ft 375 kts 45°
2026-05-03 22:32 39.14490 -8.73207 15902 ft 381 kts 45°
2026-05-03 22:32 39.16291 -8.70710 16575 ft 386 kts 46°
2026-05-03 22:32 39.18138 -8.68144 17283 ft 394 kts 46°
2026-05-03 22:33 39.20029 -8.65518 18006 ft 402 kts 46°
2026-05-03 22:33 39.21939 -8.62866 18567 ft 413 kts 46°
2026-05-03 22:33 39.23941 -8.60082 19054 ft 426 kts 46°
2026-05-03 22:33 39.25986 -8.57233 19558 ft 436 kts 46°
2026-05-03 22:34 39.28064 -8.54335 20060 ft 448 kts 46°
2026-05-03 22:34 39.30215 -8.51336 20574 ft 458 kts 46°
2026-05-03 22:34 39.32392 -8.48296 21102 ft 468 kts 46°
2026-05-03 22:34 39.34623 -8.45177 21626 ft 475 kts 46°
2026-05-03 22:35 39.36893 -8.42000 22169 ft 481 kts 45°
2026-05-03 22:35 39.39163 -8.38822 22711 ft 485 kts 45°
2026-05-03 22:35 39.41468 -8.35589 23259 ft 490 kts 45°
2026-05-03 22:35 39.43781 -8.32343 23788 ft 493 kts 45°
2026-05-03 22:36 39.46095 -8.29090 24242 ft 497 kts 45°
2026-05-03 22:36 39.48470 -8.25750 24723 ft 502 kts 46°
2026-05-03 22:36 39.50840 -8.22413 25194 ft 506 kts 46°
2026-05-03 22:36 39.53208 -8.19075 25671 ft 510 kts 46°
2026-05-03 22:37 39.55634 -8.15651 26167 ft 514 kts 46°
2026-05-03 22:37 39.58062 -8.12221 26667 ft 518 kts 46°
2026-05-03 22:37 39.60516 -8.08750 27174 ft 522 kts 46°
2026-05-03 22:37 39.62948 -8.05306 27691 ft 525 kts 46°
2026-05-03 22:38 39.65451 -8.01766 28207 ft 528 kts 44°
2026-05-03 22:38 39.68024 -7.98417 28741 ft 530 kts 43°
2026-05-03 22:38 39.70644 -7.94970 29311 ft 534 kts 44°
2026-05-03 22:38 39.73226 -7.91541 29865 ft 536 kts 43°
2026-05-03 22:39 39.75874 -7.88064 30370 ft 539 kts 43°
2026-05-03 22:39 39.78513 -7.84620 30840 ft 541 kts 43°
2026-05-03 22:39 39.81193 -7.81094 31330 ft 543 kts 44°
2026-05-03 22:39 39.83821 -7.77611 31827 ft 544 kts 44°
2026-05-03 22:40 39.86461 -7.74122 32302 ft 544 kts 43°
2026-05-03 22:40 39.89144 -7.70588 32819 ft 545 kts 43°
2026-05-03 22:40 39.91777 -7.67108 33343 ft 545 kts 43°
2026-05-03 22:40 39.94454 -7.63556 33850 ft 544 kts 44°
2026-05-03 22:41 39.97078 -7.60073 34327 ft 544 kts 43°
2026-05-03 22:41 39.99751 -7.56527 34783 ft 543 kts 43°
2026-05-03 22:41 40.02382 -7.53032 35229 ft 542 kts 43°
2026-05-03 22:41 40.05011 -7.49533 35714 ft 541 kts 43°
2026-05-03 22:42 40.07650 -7.46015 36190 ft 539 kts 43°
2026-05-03 22:42 40.10293 -7.42489 36675 ft 537 kts 43°
2026-05-03 22:42 40.12862 -7.39059 37160 ft 534 kts 43°
2026-05-03 22:42 40.15471 -7.35571 37667 ft 531 kts 43°
2026-05-03 22:43 40.18025 -7.32151 38177 ft 528 kts 43°
2026-05-03 22:43 40.20596 -7.28705 38708 ft 524 kts 43°
2026-05-03 22:43 40.23121 -7.25318 39112 ft 520 kts 43°
2026-05-03 22:43 40.25622 -7.21959 39527 ft 515 kts 43°
2026-05-03 22:44 40.28125 -7.18592 39927 ft 512 kts 43°
2026-05-03 22:44 40.30631 -7.15220 40035 ft 516 kts 43°
2026-05-03 22:44 40.33126 -7.11861 40034 ft 523 kts 43°
2026-05-03 22:45 40.38244 -7.04947 40034 ft 528 kts 44°
2026-05-03 22:45 40.43367 -6.98015 40041 ft 529 kts 44°
2026-05-03 22:46 40.48489 -6.91067 40048 ft 529 kts 44°
2026-05-03 22:46 40.53612 -6.84103 40044 ft 529 kts 44°
2026-05-03 22:47 40.58699 -6.77170 40042 ft 529 kts 44°
2026-05-03 22:47 40.63912 -6.70340 40063 ft 527 kts 39°
2026-05-03 22:48 40.69428 -6.63917 40045 ft 535 kts 39°
2026-05-03 22:48 40.74996 -6.57346 40082 ft 540 kts 40°
2026-05-03 22:49 40.80592 -6.50760 40041 ft 537 kts 39°
2026-05-03 22:49 40.86167 -6.44174 40031 ft 538 kts 40°
2026-05-03 22:50 40.91762 -6.37549 40019 ft 538 kts 40°
2026-05-03 22:50 40.97340 -6.30930 40021 ft 538 kts 40°
2026-05-03 22:51 41.02885 -6.24332 40017 ft 538 kts 40°
2026-05-03 22:51 41.08474 -6.17668 40017 ft 538 kts 40°
2026-05-03 22:52 41.14034 -6.11021 40017 ft 539 kts 40°
2026-05-03 22:52 41.19588 -6.04366 40012 ft 539 kts 40°
2026-05-03 22:53 41.25157 -5.97677 40015 ft 539 kts 40°
2026-05-03 22:53 41.30725 -5.90974 40015 ft 539 kts 40°
2026-05-03 22:54 41.36262 -5.84291 40013 ft 538 kts 40°
2026-05-03 22:54 41.40852 -5.78740 40006 ft 538 kts 40°
2026-05-03 22:55 41.46390 -5.72027 40001 ft 538 kts 40°
2026-05-03 22:55 41.51817 -5.65100 40035 ft 539 kts 51°
2026-05-03 22:55 41.54495 -5.59553 40018 ft 540 kts 66°
2026-05-03 22:56 41.55538 -5.56485 40009 ft 541 kts 66°
2026-05-03 22:56 41.58563 -5.47290 40003 ft 541 kts 66°
2026-05-03 22:57 41.61626 -5.38115 39998 ft 540 kts 66°
2026-05-03 22:57 41.64652 -5.28927 39997 ft 540 kts 66°
2026-05-03 22:58 41.67679 -5.19755 39996 ft 540 kts 66°
2026-05-03 22:58 41.70696 -5.10560 39995 ft 540 kts 67°
2026-05-03 22:59 41.73726 -5.01300 39991 ft 540 kts 67°
2026-05-03 22:59 41.76726 -4.92102 39991 ft 540 kts 67°
2026-05-03 23:00 41.79715 -4.82902 39989 ft 540 kts 67°
2026-05-03 23:00 41.82721 -4.73625 39985 ft 540 kts 67°
2026-05-03 23:01 41.85704 -4.64379 39988 ft 540 kts 67°
2026-05-03 23:01 41.88674 -4.55151 39985 ft 540 kts 67°
2026-05-03 23:02 41.91645 -4.45882 39983 ft 539 kts 67°
2026-05-03 23:02 41.94589 -4.36667 39980 ft 539 kts 67°
2026-05-03 23:03 41.97541 -4.27395 39982 ft 539 kts 68°
2026-05-03 23:03 42.00486 -4.18112 39983 ft 540 kts 68°
2026-05-03 23:04 42.03494 -4.08865 39984 ft 539 kts 64°
2026-05-03 23:04 42.06715 -3.99735 39979 ft 539 kts 65°
2026-05-03 23:05 42.09910 -3.90659 39980 ft 538 kts 65°
2026-05-03 23:05 42.13119 -3.81533 39984 ft 538 kts 65°
2026-05-03 23:06 42.16310 -3.72399 39988 ft 538 kts 65°
2026-05-03 23:06 42.19489 -3.63302 39989 ft 537 kts 65°
2026-05-03 23:07 42.22671 -3.54137 39988 ft 537 kts 65°
2026-05-03 23:07 42.25829 -3.45030 39985 ft 537 kts 65°
2026-05-03 23:08 42.28985 -3.35889 39999 ft 537 kts 65°
2026-05-03 23:08 42.32149 -3.26699 39995 ft 537 kts 65°
2026-05-03 23:09 42.35298 -3.17520 39998 ft 537 kts 66°
2026-05-03 23:09 42.38407 -3.08430 39991 ft 537 kts 66°
2026-05-03 23:10 42.41547 -2.99218 39980 ft 537 kts 66°
2026-05-03 23:10 42.44509 -2.89997 40008 ft 535 kts 76°
2026-05-03 23:10 42.45289 -2.85048 40010 ft 533 kts 87°
2026-05-03 23:11 42.45468 -2.80106 39999 ft 531 kts 91°
2026-05-03 23:11 42.45587 -2.70084 39988 ft 530 kts 92°
2026-05-03 23:12 42.45734 -2.60100 39980 ft 530 kts 91°
2026-05-03 23:12 42.45854 -2.50127 39989 ft 530 kts 92°
2026-05-03 23:13 42.45973 -2.40141 39978 ft 530 kts 92°
2026-05-03 23:13 42.46467 -2.30203 40003 ft 533 kts 79°
2026-05-03 23:14 42.48108 -2.20408 39988 ft 534 kts 79°
2026-05-03 23:14 42.49737 -2.10603 39986 ft 534 kts 79°
2026-05-03 23:15 42.51353 -2.00796 39984 ft 534 kts 79°
2026-05-03 23:15 42.52971 -1.90971 39987 ft 534 kts 79°
2026-05-03 23:16 42.54572 -1.81137 39982 ft 535 kts 79°
2026-05-03 23:16 42.56181 -1.71240 39977 ft 535 kts 79°
2026-05-03 23:17 42.57763 -1.61428 39972 ft 535 kts 79°
2026-05-03 23:17 42.59351 -1.51536 39967 ft 535 kts 79°
2026-05-03 23:18 42.60923 -1.41671 39966 ft 535 kts 79°
2026-05-03 23:18 42.62489 -1.31800 39972 ft 536 kts 79°
2026-05-03 23:19 42.64054 -1.21866 39985 ft 536 kts 79°
2026-05-03 23:19 42.65604 -1.11977 39980 ft 536 kts 79°
2026-05-03 23:20 42.67141 -1.02101 39984 ft 535 kts 80°
2026-05-03 23:20 42.68675 -0.92191 39982 ft 535 kts 80°
2026-05-03 23:21 42.70202 -0.82265 39984 ft 535 kts 80°
2026-05-03 23:21 42.71716 -0.72368 39988 ft 534 kts 80°
2026-05-03 23:22 42.73967 -0.57527 39980 ft 533 kts 80°
2026-05-03 23:22 42.75452 -0.47670 39981 ft 532 kts 80°
2026-05-03 23:23 42.76927 -0.37803 39980 ft 531 kts 80°
2026-05-03 23:23 42.78398 -0.27921 39984 ft 531 kts 80°
2026-05-03 23:24 42.80695 -0.18430 40024 ft 534 kts 60°
2026-05-03 23:24 42.85094 -0.10310 39982 ft 533 kts 50°
2026-05-03 23:25 42.89788 -0.02557 39983 ft 530 kts 50°
2026-05-03 23:25 42.94467 0.05292 39976 ft 531 kts 50°
2026-05-03 23:26 42.99156 0.13118 39978 ft 532 kts 50°
2026-05-03 23:26 43.03795 0.20914 39971 ft 532 kts 50°
2026-05-03 23:27 43.08487 0.28802 39966 ft 531 kts 50°
2026-05-03 23:27 43.13130 0.36638 39967 ft 531 kts 50°
2026-05-03 23:28 43.17780 0.44504 39958 ft 531 kts 50°
2026-05-03 23:28 43.22411 0.52358 39958 ft 531 kts 50°
2026-05-03 23:29 43.27044 0.60238 39957 ft 530 kts 50°
2026-05-03 23:29 43.31668 0.68123 39955 ft 530 kts 50°
2026-05-03 23:30 43.36282 0.76014 39956 ft 530 kts 51°
2026-05-03 23:30 43.40890 0.83913 39959 ft 530 kts 51°
2026-05-03 23:31 43.45494 0.91829 39961 ft 530 kts 51°
2026-05-03 23:31 43.50089 0.99748 39967 ft 530 kts 51°
2026-05-03 23:32 43.54676 1.07677 39971 ft 530 kts 51°
2026-05-03 23:32 43.59255 1.15615 39969 ft 530 kts 51°
2026-05-03 23:33 43.63858 1.23614 39974 ft 530 kts 51°
2026-05-03 23:33 43.68409 1.31580 39977 ft 530 kts 54°
2026-05-03 23:34 43.72814 1.39835 39970 ft 530 kts 53°
2026-05-03 23:34 43.77204 1.48029 39973 ft 530 kts 54°
2026-05-03 23:35 43.81565 1.56259 39973 ft 530 kts 53°
2026-05-03 23:35 43.85200 1.63078 39972 ft 530 kts 53°
2026-05-03 23:36 43.89549 1.71321 39974 ft 530 kts 53°
2026-05-03 23:36 43.94628 1.80930 39975 ft 529 kts 53°
2026-05-03 23:37 43.98134 1.87959 39973 ft 529 kts 55°
2026-05-03 23:37 44.02359 1.96290 39975 ft 527 kts 55°
2026-05-03 23:38 44.06504 2.04715 39975 ft 527 kts 55°
2026-05-03 23:38 44.10658 2.13042 39980 ft 526 kts 55°
2026-05-03 23:39 44.14823 2.21496 39983 ft 526 kts 56°
2026-05-03 23:39 44.18953 2.29860 39992 ft 526 kts 56°
2026-05-03 23:40 44.23075 2.38255 39991 ft 525 kts 56°
2026-05-03 23:40 44.27195 2.46658 39989 ft 525 kts 56°
2026-05-03 23:41 44.31309 2.55079 39989 ft 524 kts 56°
2026-05-03 23:41 44.35420 2.63517 39989 ft 524 kts 56°
2026-05-03 23:42 44.39528 2.71973 39996 ft 524 kts 56°
2026-05-03 23:42 44.43591 2.80361 40003 ft 524 kts 56°
2026-05-03 23:43 44.47672 2.88811 40013 ft 524 kts 56°
2026-05-03 23:43 44.51744 2.97266 40025 ft 524 kts 56°
2026-05-03 23:44 44.55814 3.05743 40026 ft 524 kts 56°
2026-05-03 23:44 44.59880 3.14236 40031 ft 524 kts 56°
2026-05-03 23:45 44.63577 3.23024 40042 ft 523 kts 61°
2026-05-03 23:45 44.67134 3.31933 40043 ft 523 kts 61°
2026-05-03 23:46 44.70721 3.40870 40043 ft 523 kts 61°
2026-05-03 23:46 44.74261 3.49770 40042 ft 523 kts 61°
2026-05-03 23:47 44.77830 3.58736 40039 ft 523 kts 62°
2026-05-03 23:47 44.81352 3.67636 40037 ft 523 kts 62°
2026-05-03 23:48 44.84900 3.76616 40039 ft 523 kts 62°
2026-05-03 23:48 44.88420 3.85561 40032 ft 523 kts 62°
2026-05-03 23:49 44.91936 3.94521 40032 ft 523 kts 62°
2026-05-03 23:49 44.95447 4.03499 40030 ft 523 kts 62°
2026-05-03 23:50 44.98955 4.12496 40035 ft 523 kts 62°
2026-05-03 23:50 45.02459 4.21514 40052 ft 523 kts 62°
2026-05-03 23:51 45.05953 4.30536 40051 ft 523 kts 62°
2026-05-03 23:51 45.09443 4.39576 40032 ft 523 kts 62°
2026-05-03 23:52 45.12917 4.48605 40049 ft 523 kts 62°
2026-05-03 23:52 45.16390 4.57660 40047 ft 523 kts 62°
2026-05-03 23:53 45.19859 4.66736 40042 ft 523 kts 62°
2026-05-03 23:53 45.23309 4.75791 40040 ft 523 kts 62°
2026-05-03 23:54 45.26776 4.84919 40045 ft 523 kts 62°
2026-05-03 23:54 45.30225 4.94031 40047 ft 523 kts 63°
2026-05-03 23:55 45.33660 5.03140 40051 ft 523 kts 63°
2026-05-03 23:55 45.37086 5.12250 40056 ft 523 kts 63°
2026-05-03 23:56 45.40509 5.21384 40057 ft 524 kts 63°
2026-05-03 23:56 45.43931 5.30547 40057 ft 524 kts 63°
2026-05-03 23:57 45.47329 5.39672 40060 ft 524 kts 61°
2026-05-03 23:57 45.49339 5.44012 40075 ft 524 kts 49°
2026-05-03 23:57 45.51895 5.47743 40073 ft 523 kts 41°
2026-05-03 23:58 45.57313 5.54612 40071 ft 521 kts 40°
2026-05-03 23:58 45.62720 5.61544 40077 ft 521 kts 41°
2026-05-03 23:59 45.68096 5.68429 40077 ft 520 kts 41°
2026-05-03 23:59 45.73502 5.75379 40081 ft 520 kts 41°
2026-05-04 00:00 45.78865 5.82264 40080 ft 519 kts 41°
2026-05-04 00:00 45.84238 5.89181 40076 ft 518 kts 41°
2026-05-04 00:01 45.89588 5.96092 40080 ft 518 kts 41°
2026-05-04 00:01 45.94947 6.03026 40084 ft 518 kts 41°
2026-05-04 00:02 46.00314 6.09996 40082 ft 519 kts 41°
2026-05-04 00:02 46.05664 6.16958 40082 ft 520 kts 41°
2026-05-04 00:03 46.10583 6.24554 40097 ft 521 kts 54°
2026-05-04 00:03 46.14719 6.33118 40075 ft 522 kts 55°
2026-05-04 00:04 46.18905 6.41659 40077 ft 522 kts 54°
2026-05-04 00:04 46.23066 6.50243 40075 ft 521 kts 55°
2026-05-04 00:05 46.27226 6.58826 40050 ft 521 kts 54°
2026-05-04 00:05 46.31376 6.67418 40065 ft 520 kts 55°
2026-05-04 00:06 46.35491 6.75968 40042 ft 520 kts 55°
2026-05-04 00:06 46.39623 6.84575 40065 ft 519 kts 55°
2026-05-04 00:07 46.43742 6.93187 40066 ft 520 kts 55°
2026-05-04 00:07 46.47862 7.01824 40054 ft 518 kts 55°
2026-05-04 00:08 46.51958 7.10437 40066 ft 520 kts 55°
2026-05-04 00:08 46.56112 7.18999 39891 ft 520 kts 47°
2026-05-04 00:09 46.58693 7.22699 39773 ft 516 kts 36°
2026-05-04 00:09 46.61681 7.25579 39656 ft 512 kts 24°
2026-05-04 00:09 46.64854 7.27786 39507 ft 511 kts 22°
2026-05-04 00:09 46.68099 7.29955 39347 ft 511 kts 22°
2026-05-04 00:10 46.71330 7.32113 39174 ft 511 kts 22°
2026-05-04 00:10 46.74534 7.34283 39069 ft 509 kts 22°
2026-05-04 00:10 46.80953 7.38821 39088 ft 514 kts 31°
2026-05-04 00:11 46.83802 7.41938 39113 ft 517 kts 42°
2026-05-04 00:11 46.86027 7.45454 39114 ft 518 kts 53°
2026-05-04 00:11 46.89597 7.54619 39087 ft 518 kts 63°
2026-05-04 00:12 46.92781 7.64042 39089 ft 517 kts 64°
2026-05-04 00:12 46.95996 7.73458 39081 ft 517 kts 63°
2026-05-04 00:13 46.99175 7.82876 39069 ft 516 kts 64°
2026-05-04 00:13 47.02359 7.92304 39069 ft 515 kts 64°
2026-05-04 00:14 47.05523 8.01724 39076 ft 515 kts 64°
2026-05-04 00:14 47.08680 8.11150 39082 ft 514 kts 64°
2026-05-04 00:15 47.11820 8.20563 39086 ft 514 kts 64°
2026-05-04 00:15 47.14950 8.29982 39084 ft 514 kts 64°
2026-05-04 00:16 47.18089 8.39457 39080 ft 513 kts 64°
2026-05-04 00:16 47.21182 8.48830 39076 ft 512 kts 64°
2026-05-04 00:17 47.24292 8.58290 39074 ft 512 kts 64°
2026-05-04 00:17 47.27379 8.67713 39076 ft 512 kts 64°
2026-05-04 00:18 47.29956 8.75607 39071 ft 512 kts 64°
2026-05-04 00:18 47.33021 8.85028 39070 ft 511 kts 64°
2026-05-04 00:19 47.36086 8.94482 39072 ft 510 kts 64°
2026-05-04 00:19 47.39154 9.03982 39066 ft 510 kts 64°
2026-05-04 00:20 47.42196 9.13436 39063 ft 510 kts 65°
2026-05-04 00:20 47.45221 9.22872 39065 ft 510 kts 65°
2026-05-04 00:21 47.48237 9.32315 39072 ft 510 kts 65°
2026-05-04 00:21 47.51155 9.41485 39047 ft 494 kts 65°
2026-05-04 00:22 47.52643 9.46174 39041 ft 476 kts 65°
2026-05-04 00:22 47.54022 9.50526 39042 ft 465 kts 65°
2026-05-04 00:22 47.56752 9.59166 39093 ft 464 kts 65°
2026-05-04 00:23 47.57928 9.63571 39107 ft 466 kts 76°
2026-05-04 00:23 47.58461 9.68307 39106 ft 467 kts 90°
2026-05-04 00:23 47.58173 9.77965 39088 ft 473 kts 95°
2026-05-04 00:24 47.57762 9.87788 39081 ft 481 kts 94°
2026-05-04 00:24 47.57368 9.97630 38701 ft 480 kts 95°
2026-05-04 00:25 47.57151 10.02609 37683 ft 485 kts 95°
2026-05-04 00:25 47.56937 10.07600 36472 ft 492 kts 95°
2026-05-04 00:25 47.56728 10.12608 36025 ft 482 kts 95°
2026-05-04 00:25 47.56534 10.17151 35461 ft 484 kts 95°
2026-05-04 00:26 47.56310 10.22163 34796 ft 499 kts 95°
2026-05-04 00:26 47.56077 10.27372 34086 ft 511 kts 95°
2026-05-04 00:26 47.55846 10.32649 33296 ft 513 kts 95°
2026-05-04 00:26 47.55608 10.37952 32522 ft 512 kts 95°
2026-05-04 00:27 47.55365 10.43214 31737 ft 511 kts 95°
2026-05-04 00:27 47.55154 10.48432 30935 ft 513 kts 91°
2026-05-04 00:27 47.55460 10.53712 30106 ft 517 kts 79°
2026-05-04 00:27 47.56461 10.58855 29232 ft 516 kts 68°
2026-05-04 00:28 47.58046 10.63536 28392 ft 512 kts 59°
2026-05-04 00:28 47.59860 10.68076 27539 ft 508 kts 59°
2026-05-04 00:28 47.61669 10.72526 26695 ft 505 kts 59°
2026-05-04 00:28 47.63474 10.76989 25876 ft 501 kts 59°
2026-05-04 00:29 47.65252 10.81447 25038 ft 497 kts 59°
2026-05-04 00:29 47.66957 10.85718 24235 ft 477 kts 57°
2026-05-04 00:29 47.68933 10.89552 23424 ft 456 kts 45°
2026-05-04 00:29 47.71263 10.92645 22667 ft 449 kts 38°
2026-05-04 00:30 47.73712 10.95561 21922 ft 450 kts 38°
2026-05-04 00:30 47.76172 10.98456 21150 ft 448 kts 38°
2026-05-04 00:30 47.78565 11.01291 20415 ft 436 kts 38°
2026-05-04 00:30 47.80905 11.04088 19684 ft 425 kts 38°
2026-05-04 00:31 47.83212 11.06845 18991 ft 427 kts 38°
2026-05-04 00:31 47.85545 11.09623 18233 ft 432 kts 38°
2026-05-04 00:31 47.87880 11.12405 17484 ft 421 kts 38°
2026-05-04 00:31 47.90138 11.15089 16784 ft 419 kts 38°
2026-05-04 00:32 47.92435 11.17817 16064 ft 420 kts 38°
2026-05-04 00:32 47.94704 11.20520 15347 ft 419 kts 38°
2026-05-04 00:32 47.96962 11.23217 14628 ft 418 kts 38°
2026-05-04 00:32 47.99202 11.25894 13887 ft 402 kts 38°
2026-05-04 00:33 48.01323 11.28429 13440 ft 381 kts 39°
2026-05-04 00:33 48.05197 11.33068 13123 ft 331 kts 39°
2026-05-04 00:33 48.06777 11.35510 13105 ft 339 kts 59°
2026-05-04 00:34 48.07843 11.38759 12777 ft 351 kts 71°
2026-05-04 00:34 48.08618 11.42198 12471 ft 349 kts 75°
2026-05-04 00:34 48.09358 11.45677 12175 ft 346 kts 72°
2026-05-04 00:34 48.10169 11.48988 11869 ft 338 kts 71°
2026-05-04 00:35 48.11002 11.52256 11579 ft 329 kts 71°
2026-05-04 00:35 48.11762 11.55396 11290 ft 316 kts 72°
2026-05-04 00:35 48.12483 11.58451 11035 ft 311 kts 72°
2026-05-04 00:35 48.13210 11.61493 10780 ft 309 kts 72°
2026-05-04 00:36 48.13941 11.64514 10513 ft 307 kts 72°
2026-05-04 00:36 48.14671 11.67550 10256 ft 305 kts 72°
2026-05-04 00:36 48.15381 11.70517 10004 ft 304 kts 72°
2026-05-04 00:36 48.16089 11.73479 9736 ft 302 kts 72°
2026-05-04 00:37 48.16791 11.76416 9478 ft 300 kts 72°
2026-05-04 00:37 48.17487 11.79333 9220 ft 298 kts 72°
2026-05-04 00:37 48.18311 11.82182 8978 ft 297 kts 57°
2026-05-04 00:37 48.19524 11.84661 8747 ft 296 kts 52°
2026-05-04 00:38 48.20820 11.87074 8485 ft 294 kts 52°
2026-05-04 00:38 48.22076 11.89460 8243 ft 293 kts 53°
2026-05-04 00:38 48.23320 11.91909 7992 ft 292 kts 53°
2026-05-04 00:38 48.24541 11.94314 7743 ft 291 kts 53°
2026-05-04 00:39 48.25782 11.96730 7490 ft 290 kts 53°
2026-05-04 00:39 48.27002 11.99104 7280 ft 289 kts 53°
2026-05-04 00:39 48.28234 12.01513 7026 ft 289 kts 53°
2026-05-04 00:39 48.29453 12.03901 6777 ft 288 kts 53°
2026-05-04 00:40 48.30674 12.06292 6549 ft 287 kts 53°
2026-05-04 00:40 48.31878 12.08651 6299 ft 287 kts 52°
2026-05-04 00:40 48.33101 12.11051 6050 ft 287 kts 52°
2026-05-04 00:40 48.34391 12.13293 5821 ft 281 kts 37°
2026-05-04 00:41 48.36051 12.14495 5582 ft 256 kts
2026-05-04 00:41 48.37730 12.14337 5370 ft 232 kts 336°
2026-05-04 00:41 48.38954 12.13015 5204 ft 213 kts 302°
2026-05-04 00:41 48.39430 12.10949 5074 ft 201 kts 268°
2026-05-04 00:42 48.39060 12.09034 4903 ft 195 kts 245°
2026-05-04 00:42 48.38667 12.07096 4681 ft 194 kts 261°
2026-05-04 00:42 48.38462 12.05062 4437 ft 195 kts 263°
2026-05-04 00:42 48.38299 12.03042 4192 ft 194 kts 265°
2026-05-04 00:43 48.38141 12.01015 3961 ft 197 kts 265°
2026-05-04 00:43 48.37983 11.98998 3717 ft 194 kts 266°
2026-05-04 00:43 48.37824 11.96978 3463 ft 194 kts 268°
2026-05-04 00:43 48.37681 11.95031 3209 ft 179 kts 268°
2026-05-04 00:44 48.37541 11.93257 2944 ft 167 kts 269°
2026-05-04 00:44 48.37415 11.91530 2712 ft 163 kts 269°
2026-05-04 00:44 48.37285 11.89876 2495 ft 151 kts 269°
2026-05-04 00:44 48.37178 11.88295 2285 ft 157 kts 264°
2026-05-04 00:45 48.37028 11.86677 2158 ft 153 kts 266°
2026-05-04 00:45 48.36928 11.85119 1950 ft 147 kts 264°
2026-05-04 00:45 48.36810 11.83595 1691 ft 146 kts 263°
2026-05-04 00:45 48.36692 11.82076 1505 ft 142 kts 264°
2026-05-04 00:46 48.36584 11.80713 1469 ft 118 kts 263°
2026-05-04 00:46 48.36507 11.79749 1465 ft 71 kts 263°
2026-05-04 00:46 48.36455 11.79093 1470 ft 50 kts 254°
2026-05-04 00:46 48.36288 11.78678 1466 ft 44 kts 233°
2026-05-04 00:47 48.36138 11.78361 1467 ft 30 kts 241°
2026-05-04 00:47 48.36108 11.78079 1478 ft 26 kts 264°
2026-05-04 00:47 48.36090 11.77836 1468 ft 21 kts 262°
2026-05-04 00:47 48.36055 11.77665 1467 ft 6 kts 214°
2026-05-04 00:48 48.36036 11.77666 1470 ft 4 kts 175°
2026-05-04 00:48 48.35977 11.77674 1469 ft 13 kts 173°
2026-05-04 00:48 48.35845 11.77697 1481 ft 24 kts 173°
2026-05-04 00:48 48.35673 11.77726 1479 ft 26 kts 173°
2026-05-04 00:49 48.35496 11.77757 1472 ft 25 kts 173°
2026-05-04 00:49 48.35333 11.77785 1474 ft 23 kts 172°
2026-05-04 00:49 48.35179 11.77812 1479 ft 21 kts 173°
2026-05-04 00:49 48.35034 11.77837 1489 ft 20 kts 172°
2026-05-04 00:50 48.34903 11.77860 1478 ft 19 kts 174°
2026-05-04 00:50 48.34778 11.77881 1487 ft 18 kts 173°
2026-05-04 00:50 48.34681 11.77881 1484 ft 6 kts 215°
2026-05-04 00:50 48.34656 11.77777 1485 ft 16 kts 261°
2026-05-04 00:51 48.34640 11.77586 1485 ft 20 kts 262°
2026-05-04 00:51 48.34646 11.77431 1477 ft 5 kts 315°
2026-05-04 00:51 48.34685 11.77410 1483 ft 9 kts 349°
2026-05-04 00:51 48.34774 11.77380 1480 ft 12 kts 327°
2026-05-04 00:52 48.34791 11.77272 1484 ft 14 kts 269°
2026-05-04 00:52 48.34792 11.77195 1493 ft 1 kts 291°
2026-05-04 00:52 48.34805 11.77178 1476 ft 6 kts 323°
2026-05-04 00:52 48.34841 11.77171 1481 ft 6 kts
2026-05-04 00:53 48.34862 11.77169 1480 ft 0 kts 356°
2026-05-04 00:53 48.34866 11.77169 1481 ft 0 kts 355°